Miscellaneous Local Product
Issued by NWS North Platte, NE

Home | Current Version | Previous Version | Text Only | Print | Product List | Glossary On
Versions: 1 2 3 4 5 6 7 8 9 10 11 12 13 14 15 16 17 18 19 20 21 22 23 24 25 26 27 28 29 30 31 32 33 34 35 36 37 38 39 40 41 42 43 44 45 46 47 48 49 50
000
AXUS43 KLBF 240210
MISLBF


WESTERN AND NORTH CENTRAL NEBRASKA HOURLY WEATHER ROUNDUP
NATIONAL WEATHER SERVICE NORTH PLATTE NE
800 PM CST TUE JAN 23 2018

NOTE: "FAIR" INDICATES FEW OR NO CLOUDS BELOW 12,000 FEET WITH NO
SIGNIFICANT WEATHER AND/OR OBSTRUCTIONS TO VISIBILITY.

NOTE: STATIONS NOT REPORTING VARIABLES SUCH AS SKY/WEATHER OR
PRESSURE ARE PROVIDED BY RAWS AND APRS NETWORKS AND ARE NOT UNDER
NATIONAL WEATHER SERVICE QUALITY CONTROL.

...OBSERVATIONS IN AND NEAR THE EASTERN PANHANDLE OF NEBRASKA...

CITY           SKY/WX    TMP DP  RH WIND       PRES   REMARKS
PINE RIDGE     CLEAR     20  15  81 SW9       30.23R WCI   9
GORDON         FAIR      24  17  72 W9        30.21R WCI  15
CHADRON        CLEAR     20  13  74 W14       30.24S WCI   7
ALLIANCE       CLEAR     15  11  83 W10       30.24S WCI   2
SIDNEY         CLEAR     19  14  81 NW8       30.26F WCI   9
CRESCENT LAKE    N/A     23  17  78 W9G16       N/A  WCI  13
$$

...OBSERVATIONS IN NORTHERN NEBRASKA AND FAR SOUTHERN SOUTH DAKOTA...

CITY           SKY/WX    TMP DP  RH WIND       PRES   REMARKS
WINNER         FAIR      31  24  75 W14       30.18R WCI  21
VALENTINE      CLEAR     28  20  71 W10       30.21R WCI  19
AINSWORTH      CLEAR     28  24  83 W10       30.19S WCI  19
O`NEILL        PTCLDY    30  26  83 W9        30.17S WCI  22
THEDFORD       CLEAR     28  22  79 W7        30.23R WCI  20
BROKEN BOW     CLEAR     32  23  69 NW14      30.21R WCI  22
ORD            CLEAR     30  25  81 NW5       30.19S WCI  25
ALBION         CLEAR     29  25  84 NW3       30.19R
VALENTINE NWR    N/A     29  21  72 W8          N/A  WCI  21
HALSEY           N/A     31  22  70 W6          N/A  WCI  25
BUTTE            N/A     29  25  83 W5          N/A  WCI  24
CHAMBERS         N/A     30  24  77 CALM        N/A
EWING            N/A     26  24  92 W5          N/A  WCI  20
$$

...OBSERVATIONS IN SOUTHWEST NEBRASKA AND FAR NORTHEAST COLORADO...

CITY           SKY/WX    TMP DP  RH WIND       PRES   REMARKS
WRAY           FAIR      23  18  80 W8        30.30R WCI  14
HOLYOKE        FAIR      30  19  64 NW7       30.27S WCI  23
IMPERIAL       CLEAR     31  20  63 NW17      30.26S WCI  19
OGALLALA       CLEAR     28  19  70 NW12      30.27S WCI  18
NORTH PLATTE   CLEAR     23  16  74 NW7       30.26R WCI  15
MCCOOK         CLEAR     29  22  75 NW9       30.28R WCI  20
LEXINGTON      CLEAR     27  22  80 W8        30.25R WCI  18
STAPLETON        N/A     25  21  83 CALM        N/A
GOTHENBURG       N/A     28  21  75 W5          N/A  WCI  23
CALLAWAY         N/A     26  21  82 NW10        N/A  WCI  16
$$

...OBSERVATIONS IN CENTRAL LINCOLN COUNTY AREA...

CITY           SKY/WX    TMP DP  RH WIND       PRES   REMARKS
N.P. AIRPORT   CLEAR     23  16  74 NW7       30.26R WCI  15
N.P. DOWNTOWN    N/A     29  23  77 W3          N/A
N.P. SOUTHEAST   N/A     30  22  73 W3          N/A
N.P. HILLCREST   N/A     29  23  77 W9          N/A  WCI  21
$$

...SOME OBSERVATIONS FROM AROUND THE REGION...

CITY           SKY/WX    TMP DP  RH WIND       PRES   REMARKS
DENVER         PTCLDY    19  10  68 SE13      30.26R WCI   6
BERTHOUD PASS  FAIR       3  -8  60 NW36G44   30.14S HAZE    WCI -23
GRAND JUNCTION CLEAR     23  19  85 NE3       30.36R
LARAMIE        CLEAR     17   8  67 SW17      30.18S WCI   1
CHEYENNE       CLEAR     21  10  62 SW10      30.21R WCI  10
CASPER         CLEAR     22  14  71 SW16      30.19S WCI   8
BISMARCK       CLEAR     17  15  92 E6        30.16S WCI   9
RAPID CITY     CLEAR     27  18  69 CALM      30.19F
PIERRE         CLEAR     23  20  88 NW9       30.17R WCI  13
SIOUX FALLS    CLOUDY    23  22  96 CALM      30.16R
OMAHA          CLOUDY    25  21  85 CALM      30.22S
GRAND ISLAND   MOCLDY    31  27  85 W13       30.22R WCI  21
SCOTTSBLUFF    CLEAR     20  15  81 NW6       30.26S WCI  12
KANSAS CITY    CLOUDY    30  25  81 W7        30.25R WCI  23
HILL CITY      CLEAR     30  25  81 W7        30.30R WCI  23
WICHITA        CLEAR     37  21  52 NW6       30.28R WCI  32
DODGE CITY     CLEAR     28  17  63 NW10      30.32R WCI  19
OKLAHOMA CITY  CLEAR     38  15  39 CALM      30.31R
DALLAS         PTCLDY    51  18  27 N6        30.31R
AMARILLO       CLEAR     31   8  38 NE8       30.32R WCI  23
$$




USA.gov is the U.S. government's official web portal to all federal, state and local government web resources and services.